| time (UTC) | temp F | wind direction | speed MPH | gust MPH | rain 1hr in | rain 24hr in | rain mn in | humidity % | barometer mb |
| 20260502170132 | 45 | 127 | 1.0 | 6.0 | 0.00 | 0.22 | 0.00 | 58 | 1014.0 |
| 20260502164117 | 45 | 185 | 1.0 | 8.0 | 0.00 | 0.22 | 0.00 | 63 | 1014.2 |
| 20260502163618 | 45 | 185 | 1.0 | 8.0 | 0.00 | 0.22 | 0.00 | 60 | 1014.3 |
| 20260502163117 | 45 | 157 | 1.0 | 6.0 | 0.00 | 0.22 | 0.00 | 61 | 1014.3 |
| 20260502162620 | 45 | 165 | 1.0 | 6.0 | 0.00 | 0.22 | 0.00 | 59 | 1014.3 |
| 20260502162120 | 45 | 311 | 1.0 | 5.0 | 0.00 | 0.22 | 0.00 | 61 | 1014.3 |
| 20260502161618 | 45 | 209 | 0.0 | 4.0 | 0.00 | 0.22 | 0.00 | 63 | 1014.4 |
| 20260502161117 | 44 | 274 | 0.0 | 3.0 | 0.00 | 0.22 | 0.00 | 62 | 1014.3 |
| 20260502160844 | 44 | 272 | 0.0 | 3.0 | 0.00 | 0.22 | 0.00 | 64 | 1014.4 |
| 20260502160120 | 44 | 151 | 0.0 | 4.0 | 0.00 | 0.22 | 0.00 | 64 | 1014.3 |
| 20260502152337 | 43 | 154 | 1.0 | 5.0 | 0.00 | 0.22 | 0.00 | 64 | 1014.5 |
| 20260502151617 | 43 | 143 | 1.0 | 5.0 | 0.00 | 0.22 | 0.00 | 63 | 1014.5 |
| 20260502151109 | 43 | 142 | 1.0 | 7.0 | 0.00 | 0.22 | 0.00 | 62 | 1014.6 |
| 20260502150828 | 43 | 163 | 0.0 | 7.0 | 0.00 | 0.22 | 0.00 | 60 | 1014.5 |
| 20260502150119 | 43 | 259 | 0.0 | 3.0 | 0.00 | 0.22 | 0.00 | 61 | 1014.5 |
| 20260502140105 | 43 | 148 | 1.0 | 7.0 | 0.00 | 0.22 | 0.00 | 63 | 1014.4 |
| 20260502123537 | 38 | 112 | 0.0 | 4.0 | 0.00 | 0.22 | 0.00 | 82 | 1015.2 |
| 20260502123033 | 38 | 152 | 0.0 | 4.0 | 0.00 | 0.22 | 0.00 | 83 | 1015.3 |
| 20260502122530 | 38 | 82 | 1.0 | 6.0 | 0.00 | 0.22 | 0.00 | 85 | 1015.3 |
| 20260502122028 | 38 | 82 | 1.0 | 6.0 | 0.00 | 0.22 | 0.00 | 85 | 1015.3 |
| 20260502121530 | 37 | 153 | 1.0 | 5.0 | 0.00 | 0.22 | 0.00 | 86 | 1015.3 |
| 20260502121521 | 37 | 149 | 1.0 | 5.0 | 0.00 | 0.22 | 0.00 | 86 | 1015.4 |
| 20260502120530 | 37 | 89 | 1.0 | 7.0 | 0.00 | 0.22 | 0.00 | 87 | 1015.4 |
| 20260502115525 | 37 | 40 | 1.0 | 7.0 | 0.00 | 0.22 | 0.00 | 89 | 1015.4 |
| 20260502115026 | 37 | 63 | 1.0 | 6.0 | 0.00 | 0.22 | 0.00 | 91 | 1015.4 |
| 20260502114525 | 36 | 107 | 1.0 | 6.0 | 0.00 | 0.22 | 0.00 | 93 | 1015.4 |
| 20260502114022 | 36 | 110 | 1.0 | 6.0 | 0.00 | 0.22 | 0.00 | 93 | 1015.3 |
| 20260502113514 | 35 | 92 | 0.0 | 4.0 | 0.00 | 0.22 | 0.00 | 93 | 1015.3 |
| 20260502113008 | 35 | 118 | 0.0 | 2.0 | 0.00 | 0.22 | 0.00 | 94 | 1015.3 |
| 20260502112502 | 35 | 103 | 0.0 | 3.0 | 0.00 | 0.22 | 0.00 | 93 | 1015.2 |
| 20260502111959 | 34 | 103 | 0.0 | 3.0 | 0.00 | 0.22 | 0.00 | 93 | 1015.2 |
| 20260502111449 | 34 | 136 | 0.0 | 2.0 | 0.00 | 0.22 | 0.00 | 93 | 1015.3 |
| 20260502110945 | 33 | 136 | 0.0 | 2.0 | 0.00 | 0.22 | 0.00 | 93 | 1015.2 |
| 20260502110437 | 33 | 227 | 0.0 | 0.0 | 0.00 | 0.22 | 0.00 | 93 | 1015.2 |
| 20260502105934 | 33 | 227 | 0.0 | 0.0 | 0.00 | 0.22 | 0.00 | 93 | 1015.2 |
| 20260502105435 | 33 | 227 | 0.0 | 0.0 | 0.00 | 0.22 | 0.00 | 93 | 1015.2 |
| 20260502104933 | 33 | 227 | 0.0 | 0.0 | 0.00 | 0.22 | 0.00 | 92 | 1015.2 |
| 20260502104653 | 33 | 227 | 0.0 | 0.0 | 0.00 | 0.22 | 0.00 | 92 | 1015.1 |
| 20260502104151 | 33 | 227 | 0.0 | 0.0 | 0.00 | 0.22 | 0.00 | 92 | 1015.1 |
| 20260502103433 | 33 | 227 | 0.0 | 0.0 | 0.00 | 0.22 | 0.00 | 92 | 1015.2 |
| 20260502102930 | 33 | 227 | 0.0 | 0.0 | 0.00 | 0.22 | 0.00 | 92 | 1015.3 |
| 20260502102428 | 33 | 227 | 0.0 | 0.0 | 0.00 | 0.22 | 0.00 | 92 | 1015.3 |
| 20260502101934 | 33 | 227 | 0.0 | 0.0 | 0.00 | 0.22 | 0.00 | 92 | 1015.3 |
| 20260502101427 | 33 | 227 | 0.0 | 0.0 | 0.00 | 0.22 | 0.00 | 92 | 1015.2 |
| 20260502101402 | 33 | 227 | 0.0 | 0.0 | 0.00 | 0.22 | 0.00 | 92 | 1015.2 |
| 20260502100427 | 34 | 227 | 0.0 | 0.0 | 0.00 | 0.22 | 0.00 | 93 | 1015.1 |
| 20260502090918 | 34 | 227 | 0.0 | 0.0 | 0.00 | 0.22 | 0.00 | 91 | 1014.4 |
| 20260502090641 | 34 | 227 | 0.0 | 0.0 | 0.00 | 0.22 | 0.00 | 91 | 1014.4 |
| 20260502071407 | 35 | 230 | 0.0 | 0.0 | 0.00 | 0.22 | 0.00 | 91 | 1014.0 |
| 20260502070906 | 35 | 230 | 0.0 | 0.0 | 0.00 | 0.22 | 0.00 | 90 | 1014.0 |
| 20260502070404 | 35 | 230 | 0.0 | 0.0 | 0.00 | 0.22 | 0.00 | 90 | 1013.9 |
| 20260502065904 | 36 | 230 | 0.0 | 0.0 | 0.00 | 0.22 | 0.00 | 89 | 1013.9 |
| 20260502065403 | 36 | 230 | 0.0 | 0.0 | 0.00 | 0.22 | 0.00 | 89 | 1014.0 |
| 20260502064904 | 36 | 230 | 0.0 | 0.0 | 0.00 | 0.22 | 0.00 | 89 | 1013.9 |
| 20260502064404 | 36 | 230 | 0.0 | 0.0 | 0.00 | 0.22 | 0.00 | 89 | 1013.9 |
| 20260502063901 | 37 | 230 | 0.0 | 0.0 | 0.00 | 0.22 | 0.00 | 88 | 1013.8 |
| 20260502063401 | 37 | 230 | 0.0 | 0.0 | 0.00 | 0.22 | 0.00 | 88 | 1013.9 |
| 20260502062900 | 37 | 230 | 0.0 | 0.0 | 0.00 | 0.22 | 0.00 | 88 | 1013.9 |
| 20260502062351 | 38 | 230 | 0.0 | 0.0 | 0.00 | 0.22 | 0.00 | 88 | 1013.9 |
| 20260502061850 | 38 | 230 | 0.0 | 0.0 | 0.00 | 0.22 | 0.00 | 88 | 1014.0 |
| 20260502061349 | 38 | 230 | 0.0 | 0.0 | 0.00 | 0.22 | 0.00 | 88 | 1014.0 |
| 20260502060849 | 38 | 230 | 0.0 | 0.0 | 0.00 | 0.22 | 0.00 | 88 | 1014.0 |
| 20260502060350 | 39 | 230 | 0.0 | 0.0 | 0.00 | 0.22 | 0.00 | 87 | 1014.0 |
| 20260502055848 | 39 | 230 | 0.0 | 0.0 | 0.00 | 0.22 | 0.00 | 87 | 1014.0 |
| 20260502055347 | 39 | 230 | 0.0 | 0.0 | 0.00 | 0.22 | 0.00 | 86 | 1014.0 |
| 20260502055107 | 39 | 230 | 0.0 | 0.0 | 0.00 | 0.22 | 0.00 | 86 | 1014.0 |
| 20260502054346 | 39 | 230 | 0.0 | 0.0 | 0.00 | 0.22 | 0.00 | 86 | 1014.1 |
| 20260502053843 | 39 | 230 | 0.0 | 0.0 | 0.00 | 0.22 | 0.00 | 86 | 1014.1 |
| 20260502053344 | 39 | 230 | 0.0 | 2.0 | 0.00 | 0.22 | 0.00 | 86 | 1014.1 |
| 20260502052841 | 39 | 230 | 0.0 | 2.0 | 0.00 | 0.22 | 0.00 | 86 | 1014.0 |
| 20260502052341 | 39 | 240 | 0.0 | 0.0 | 0.00 | 0.22 | 0.00 | 86 | 1014.0 |
| 20260502051845 | 39 | 240 | 0.0 | 5.0 | 0.00 | 0.22 | 0.00 | 86 | 1014.0 |
| 20260502051342 | 39 | 240 | 0.0 | 5.0 | 0.00 | 0.22 | 0.00 | 86 | 1013.9 |
| 20260502050853 | 40 | 286 | 1.0 | 5.0 | 0.00 | 0.22 | 0.00 | 86 | 1014.0 |
| 20260502050349 | 40 | 189 | 0.0 | 3.0 | 0.00 | 0.22 | 0.00 | 87 | 1014.0 |
| 20260502045837 | 40 | 231 | 0.0 | 2.0 | 0.00 | 0.22 | 0.00 | 87 | 1013.9 |
| 20260502045336 | 40 | 271 | 0.0 | 5.0 | 0.00 | 0.22 | 0.00 | 88 | 1014.0 |
| 20260502044837 | 40 | 227 | 1.0 | 5.0 | 0.01 | 0.22 | 0.00 | 88 | 1014.0 |
| 20260502044333 | 40 | 277 | 1.0 | 4.0 | 0.01 | 0.22 | 0.00 | 88 | 1013.8 |
| 20260502044258 | 40 | 267 | 1.0 | 7.0 | 0.01 | 0.22 | 0.00 | 88 | 1013.6 |
| 20260502044251 | 41 | 232 | 1.0 | 7.0 | 0.01 | 0.22 | 0.00 | 89 | 1013.7 |
| 20260502042828 | 41 | 203 | 0.0 | 4.0 | 0.01 | 0.22 | 0.00 | 89 | 1013.5 |
| 20260502042327 | 41 | 211 | 0.0 | 4.0 | 0.01 | 0.22 | 0.00 | 89 | 1013.4 |
| 20260502041827 | 41 | 205 | 0.0 | 3.0 | 0.01 | 0.22 | 0.00 | 89 | 1013.4 |
| 20260502041328 | 41 | 193 | 0.0 | 3.0 | 0.01 | 0.22 | 0.00 | 89 | 1013.3 |
| 20260502040828 | 42 | 212 | 0.0 | 3.0 | 0.01 | 0.22 | 0.00 | 89 | 1013.3 |
| 20260502040340 | 42 | 220 | 0.0 | 4.0 | 0.01 | 0.22 | 0.00 | 89 | 1013.0 |
| 20260502035825 | 42 | 190 | 0.0 | 4.0 | 0.01 | 0.22 | 0.22 | 89 | 1013.0 |
| 20260502035326 | 42 | 225 | 0.0 | 4.0 | 0.01 | 0.22 | 0.22 | 90 | 1012.9 |
| 20260502034824 | 42 | 286 | 0.0 | 3.0 | 0.00 | 0.21 | 0.21 | 90 | 1012.9 |
| 20260502034321 | 42 | 223 | 0.0 | 4.0 | 0.00 | 0.21 | 0.21 | 90 | 1012.9 |
| 20260502034044 | 42 | 211 | 0.0 | 4.0 | 0.00 | 0.21 | 0.21 | 90 | 1012.9 |
| 20260502033537 | 42 | 154 | 0.0 | 4.0 | 0.01 | 0.21 | 0.21 | 90 | 1012.9 |
| 20260502033528 | 42 | 281 | 0.0 | 0.0 | 0.00 | 0.21 | 0.21 | 90 | 1012.9 |
| 20260502032317 | 43 | 154 | 1.0 | 5.0 | 0.02 | 0.21 | 0.21 | 90 | 1012.8 |
| 20260502031818 | 43 | 201 | 0.0 | 5.0 | 0.03 | 0.21 | 0.21 | 91 | 1012.8 |
| 20260502031538 | 43 | 296 | 0.0 | 0.0 | 0.04 | 0.21 | 0.21 | 92 | 1012.8 |
| 20260502030817 | 43 | 296 | 0.0 | 0.0 | 0.05 | 0.21 | 0.21 | 91 | 1012.7 |
| 20260502030317 | 43 | 296 | 0.0 | 0.0 | 0.06 | 0.21 | 0.21 | 91 | 1012.6 |
| 20260502025817 | 43 | 296 | 0.0 | 0.0 | 0.08 | 0.21 | 0.21 | 91 | 1012.6 |
| 20260502025543 | 43 | 296 | 0.0 | 0.0 | 0.11 | 0.21 | 0.21 | 91 | 1012.6 |
| 20260502025301 | 43 | 296 | 0.0 | 0.0 | 0.12 | 0.21 | 0.21 | 91 | 1012.6 |
| 20260502024318 | 43 | 296 | 0.0 | 0.0 | 0.13 | 0.21 | 0.21 | 91 | 1012.7 |
| 20260502024044 | 43 | 296 | 0.0 | 3.0 | 0.14 | 0.21 | 0.21 | 91 | 1012.4 |
| 20260502023311 | 44 | 296 | 0.0 | 3.0 | 0.14 | 0.21 | 0.21 | 91 | 1012.2 |
| 20260502022809 | 44 | 138 | 0.0 | 1.0 | 0.13 | 0.20 | 0.20 | 91 | 1012.3 |
| 20260502022307 | 44 | 136 | 0.0 | 0.0 | 0.12 | 0.19 | 0.19 | 91 | 1012.7 |
| 20260502021807 | 44 | 136 | 0.0 | 0.0 | 0.11 | 0.18 | 0.18 | 91 | 1012.7 |
| 20260502021307 | 44 | 136 | 0.0 | 0.0 | 0.10 | 0.17 | 0.17 | 91 | 1012.6 |
| 20260502021036 | 44 | 136 | 0.0 | 0.0 | 0.09 | 0.16 | 0.16 | 91 | 1012.6 |
| 20260502020528 | 44 | 136 | 0.0 | 0.0 | 0.08 | 0.15 | 0.15 | 91 | 1012.5 |
| 20260502015807 | 44 | 136 | 0.0 | 0.0 | 0.06 | 0.13 | 0.13 | 91 | 1012.6 |
| 20260502015527 | 44 | 136 | 0.0 | 0.0 | 0.03 | 0.10 | 0.10 | 91 | 1012.5 |
| 20260502014807 | 44 | 136 | 0.0 | 0.0 | 0.02 | 0.09 | 0.09 | 90 | 1012.3 |
| 20260502014307 | 44 | 136 | 0.0 | 0.0 | 0.01 | 0.08 | 0.08 | 90 | 1012.3 |
| 20260502013807 | 44 | 136 | 0.0 | 0.0 | 0.00 | 0.07 | 0.07 | 90 | 1012.3 |
| 20260502013305 | 44 | 136 | 0.0 | 0.0 | 0.00 | 0.07 | 0.07 | 91 | 1012.2 |
| 20260502012803 | 44 | 136 | 0.0 | 0.0 | 0.01 | 0.07 | 0.07 | 90 | 1012.1 |
| 20260502012519 | 44 | 136 | 0.0 | 0.0 | 0.01 | 0.07 | 0.07 | 90 | 1012.1 |
| 20260502011800 | 44 | 136 | 0.0 | 0.0 | 0.01 | 0.07 | 0.07 | 90 | 1012.1 |
| 20260502011517 | 44 | 136 | 0.0 | 0.0 | 0.01 | 0.07 | 0.07 | 90 | 1012.1 |
| 20260502010754 | 44 | 136 | 0.0 | 0.0 | 0.01 | 0.07 | 0.07 | 90 | 1012.1 |
| 20260502010248 | 44 | 136 | 0.0 | 1.0 | 0.01 | 0.07 | 0.07 | 89 | 1012.1 |
| 20260502005743 | 44 | 136 | 0.0 | 1.0 | 0.01 | 0.07 | 0.07 | 89 | 1012.0 |
| 20260502005243 | 44 | 136 | 0.0 | 0.0 | 0.01 | 0.07 | 0.07 | 89 | 1011.8 |
| 20260502004959 | 44 | 136 | 0.0 | 2.0 | 0.01 | 0.07 | 0.07 | 89 | 1011.7 |
| 20260502004238 | 44 | 137 | 0.0 | 2.0 | 0.02 | 0.07 | 0.07 | 89 | 1011.7 |
| 20260502003736 | 44 | 184 | 0.0 | 0.0 | 0.02 | 0.07 | 0.07 | 89 | 1011.7 |
| 20260502003236 | 44 | 184 | 0.0 | 0.0 | 0.02 | 0.07 | 0.07 | 89 | 1011.7 |
| 20260502003219 | 44 | 184 | 0.0 | 0.0 | 0.01 | 0.06 | 0.06 | 89 | 1011.7 |
| 20260502002503 | 44 | 184 | 0.0 | 0.0 | 0.01 | 0.06 | 0.06 | 88 | 1011.6 |
| 20260502001736 | 44 | 184 | 0.0 | 0.0 | 0.01 | 0.06 | 0.06 | 88 | 1011.7 |
| 20260502001500 | 44 | 184 | 0.0 | 0.0 | 0.02 | 0.06 | 0.06 | 88 | 1011.7 |
| 20260502000737 | 44 | 184 | 0.0 | 0.0 | 0.02 | 0.06 | 0.06 | 87 | 1011.8 |
| 20260502000240 | 44 | 184 | 0.0 | 0.0 | 0.02 | 0.06 | 0.06 | 87 | 1011.8 |
| 20260501235739 | 45 | 184 | 0.0 | 0.0 | 0.02 | 0.06 | 0.06 | 87 | 1011.8 |
| 20260501235504 | 45 | 184 | 0.0 | 0.0 | 0.02 | 0.06 | 0.06 | 87 | 1011.9 |
| 20260501234736 | 45 | 184 | 0.0 | 0.0 | 0.02 | 0.06 | 0.06 | 87 | 1011.9 |
| 20260501234238 | 45 | 184 | 0.0 | 0.0 | 0.01 | 0.05 | 0.05 | 86 | 1011.9 |
| 20260501233737 | 45 | 184 | 0.0 | 0.0 | 0.01 | 0.06 | 0.05 | 86 | 1011.8 |
| 20260501233714 | 45 | 184 | 0.0 | 0.0 | 0.01 | 0.06 | 0.05 | 85 | 1011.8 |
| 20260501232736 | 45 | 184 | 0.0 | 0.0 | 0.01 | 0.06 | 0.05 | 85 | 1011.8 |
| 20260501232236 | 45 | 186 | 0.0 | 0.0 | 0.01 | 0.06 | 0.05 | 86 | 1011.7 |
| 20260501231737 | 45 | 186 | 0.0 | 0.0 | 0.01 | 0.06 | 0.05 | 86 | 1011.7 |
| 20260501231239 | 45 | 186 | 0.0 | 1.0 | 0.01 | 0.05 | 0.04 | 86 | 1011.6 |
| 20260501230737 | 46 | 186 | 0.0 | 1.0 | 0.01 | 0.05 | 0.04 | 86 | 1011.7 |
| 20260501230236 | 46 | 197 | 0.0 | 0.0 | 0.01 | 0.05 | 0.04 | 86 | 1011.6 |
| 20260501225738 | 46 | 197 | 0.0 | 1.0 | 0.01 | 0.05 | 0.04 | 86 | 1011.6 |
| 20260501225236 | 46 | 196 | 0.0 | 4.0 | 0.01 | 0.05 | 0.04 | 86 | 1011.5 |
| 20260501224738 | 46 | 196 | 0.0 | 4.0 | 0.01 | 0.05 | 0.04 | 86 | 1011.6 |
| 20260501224236 | 46 | 201 | 0.0 | 2.0 | 0.02 | 0.05 | 0.04 | 86 | 1011.5 |
| 20260501223739 | 46 | 284 | 0.0 | 2.0 | 0.02 | 0.05 | 0.04 | 86 | 1011.6 |
| 20260501223236 | 46 | 293 | 0.0 | 2.0 | 0.02 | 0.05 | 0.04 | 87 | 1011.6 |
| 20260501222737 | 46 | 293 | 0.0 | 1.0 | 0.02 | 0.05 | 0.04 | 86 | 1011.6 |
| 20260501222237 | 46 | 293 | 0.0 | 1.0 | 0.02 | 0.05 | 0.04 | 86 | 1011.5 |
| 20260501221742 | 46 | 293 | 0.0 | 0.0 | 0.02 | 0.05 | 0.04 | 87 | 1011.5 |
| 20260501221236 | 47 | 293 | 0.0 | 0.0 | 0.01 | 0.05 | 0.03 | 86 | 1011.4 |
| 20260501220736 | 47 | 293 | 0.0 | 0.0 | 0.01 | 0.05 | 0.03 | 86 | 1011.4 |
| 20260501220236 | 47 | 293 | 0.0 | 0.0 | 0.01 | 0.05 | 0.03 | 86 | 1011.3 |
| 20260501215733 | 47 | 293 | 0.0 | 0.0 | 0.01 | 0.06 | 0.03 | 85 | 1011.3 |
| 20260501215224 | 47 | 293 | 0.0 | 0.0 | 0.01 | 0.06 | 0.03 | 85 | 1011.3 |
| 20260501214727 | 47 | 293 | 0.0 | 0.0 | 0.01 | 0.06 | 0.03 | 85 | 1011.3 |
| 20260501214445 | 47 | 293 | 0.0 | 0.0 | 0.00 | 0.05 | 0.02 | 83 | 1011.5 |
| 20260501213725 | 47 | 293 | 0.0 | 0.0 | 0.00 | 0.05 | 0.02 | 83 | 1011.4 |
| 20260501213225 | 47 | 293 | 0.0 | 0.0 | 0.01 | 0.05 | 0.02 | 83 | 1011.4 |
| 20260501212729 | 47 | 293 | 0.0 | 0.0 | 0.01 | 0.05 | 0.02 | 82 | 1011.4 |
| 20260501212224 | 47 | 293 | 0.0 | 0.0 | 0.01 | 0.05 | 0.02 | 83 | 1011.3 |
| 20260501212211 | 47 | 293 | 0.0 | 0.0 | 0.01 | 0.05 | 0.02 | 82 | 1011.2 |
| 20260501211224 | 47 | 293 | 0.0 | 0.0 | 0.01 | 0.05 | 0.02 | 82 | 1011.2 |
| 20260501210720 | 47 | 293 | 0.0 | 0.0 | 0.01 | 0.05 | 0.02 | 82 | 1011.3 |
| 20260501210447 | 47 | 293 | 0.0 | 0.0 | 0.01 | 0.05 | 0.02 | 82 | 1011.3 |
| 20260501205721 | 47 | 293 | 0.0 | 1.0 | 0.01 | 0.05 | 0.02 | 81 | 1011.4 |
| 20260501205218 | 47 | 293 | 0.0 | 1.0 | 0.01 | 0.05 | 0.02 | 81 | 1011.4 |
| 20260501204719 | 47 | 293 | 0.0 | 3.0 | 0.01 | 0.05 | 0.02 | 82 | 1011.5 |
| 20260501204219 | 47 | 293 | 0.0 | 3.0 | 0.01 | 0.05 | 0.02 | 82 | 1011.4 |
| 20260501203938 | 47 | 293 | 0.0 | 3.0 | 0.01 | 0.05 | 0.02 | 83 | 1011.5 |
| 20260501203216 | 47 | 199 | 0.0 | 1.0 | 0.00 | 0.04 | 0.01 | 82 | 1011.5 |
| 20260501202716 | 47 | 213 | 0.0 | 0.0 | 0.00 | 0.04 | 0.01 | 80 | 1011.5 |
| 20260501202214 | 47 | 213 | 0.0 | 0.0 | 0.00 | 0.04 | 0.01 | 80 | 1011.5 |
| 20260501201714 | 47 | 213 | 0.0 | 3.0 | 0.01 | 0.04 | 0.01 | 79 | 1011.6 |
| 20260501201213 | 47 | 213 | 0.0 | 3.0 | 0.01 | 0.04 | 0.01 | 79 | 1011.6 |
| 20260501200716 | 47 | 216 | 0.0 | 0.0 | 0.01 | 0.04 | 0.01 | 78 | 1011.6 |
| 20260501200215 | 47 | 219 | 0.0 | 0.0 | 0.01 | 0.04 | 0.01 | 78 | 1011.7 |
| 20260501195713 | 47 | 219 | 0.0 | 0.0 | 0.01 | 0.04 | 0.01 | 77 | 1011.7 |
| 20260501195659 | 47 | 219 | 0.0 | 0.0 | 0.01 | 0.04 | 0.01 | 77 | 1011.6 |
| 20260501194714 | 47 | 219 | 0.0 | 0.0 | 0.01 | 0.04 | 0.01 | 78 | 1011.6 |
| 20260501194214 | 47 | 219 | 0.0 | 1.0 | 0.01 | 0.04 | 0.01 | 79 | 1011.5 |
| 20260501193714 | 48 | 227 | 0.0 | 1.0 | 0.01 | 0.04 | 0.01 | 77 | 1011.5 |
| 20260501193213 | 48 | 223 | 0.0 | 1.0 | 0.01 | 0.04 | 0.01 | 77 | 1011.6 |
| 20260501192714 | 48 | 223 | 0.0 | 1.0 | 0.01 | 0.04 | 0.01 | 77 | 1011.7 |
| 20260501192212 | 48 | 225 | 0.0 | 0.0 | 0.01 | 0.04 | 0.01 | 77 | 1011.6 |
| 20260501191714 | 48 | 223 | 0.0 | 1.0 | 0.00 | 0.03 | 0.01 | 77 | 1011.6 |
| 20260501191212 | 48 | 223 | 0.0 | 2.0 | 0.00 | 0.03 | 0.00 | 75 | 1011.5 |
| 20260501190938 | 48 | 204 | 1.0 | 4.0 | 0.00 | 0.03 | 0.00 | 73 | 1011.7 |
| 20260501190213 | 48 | 209 | 1.0 | 4.0 | 0.00 | 0.03 | 0.00 | 72 | 1011.6 |
| 20260501185713 | 49 | 254 | 1.0 | 4.0 | 0.00 | 0.03 | 0.00 | 72 | 1011.5 |
| 20260501185211 | 49 | 251 | 1.0 | 4.0 | 0.00 | 0.03 | 0.00 | 71 | 1011.4 |
| 20260501184707 | 49 | 209 | 1.0 | 6.0 | 0.00 | 0.03 | 0.00 | 69 | 1011.4 |
| 20260501184423 | 49 | 200 | 1.0 | 7.0 | 0.00 | 0.03 | 0.00 | 69 | 1011.4 |
| 20260501184135 | 50 | 221 | 2.0 | 8.0 | 0.00 | 0.03 | 0.00 | 69 | 1011.4 |
| 20260501183411 | 51 | 247 | 3.0 | 8.0 | 0.00 | 0.03 | 0.00 | 67 | 1011.2 |
| 20260501182642 | 51 | 221 | 1.0 | 7.0 | 0.00 | 0.03 | 0.00 | 66 | 1011.2 |
| 20260501182141 | 51 | 234 | 1.0 | 5.0 | 0.00 | 0.03 | 0.00 | 65 | 1011.3 |
| 20260501181640 | 51 | 198 | 1.0 | 6.0 | 0.00 | 0.03 | 0.00 | 62 | 1011.3 |
| 20260501181139 | 51 | 196 | 1.0 | 7.0 | 0.00 | 0.03 | 0.00 | 63 | 1011.5 |
| 20260501180638 | 52 | 180 | 1.0 | 7.0 | 0.00 | 0.03 | 0.00 | 60 | 1011.4 |
| 20260501180138 | 52 | 251 | 1.0 | 6.0 | 0.00 | 0.03 | 0.00 | 61 | 1011.4 |
| 20260501175636 | 53 | 225 | 1.0 | 6.0 | 0.00 | 0.03 | 0.00 | 59 | 1011.4 |
| 20260501175403 | 53 | 245 | 1.0 | 5.0 | 0.00 | 0.03 | 0.00 | 61 | 1011.3 |
| 20260501174638 | 53 | 221 | 1.0 | 5.0 | 0.00 | 0.03 | 0.00 | 58 | 1011.3 |
| 20260501174139 | 53 | 209 | 1.0 | 5.0 | 0.00 | 0.03 | 0.00 | 60 | 1011.3 |
| 20260501173638 | 53 | 188 | 0.0 | 4.0 | 0.00 | 0.04 | 0.00 | 61 | 1011.4 |
| 20260501173139 | 53 | 171 | 0.0 | 4.0 | 0.00 | 0.05 | 0.00 | 59 | 1011.4 |
| 20260501172637 | 52 | 186 | 0.0 | 3.0 | 0.00 | 0.08 | 0.00 | 60 | 1011.3 |
| 20260501172137 | 52 | 232 | 1.0 | 6.0 | 0.00 | 0.10 | 0.00 | 59 | 1011.4 |